When you browse on this site, cookies collect data to enhance your experience and personalize the content and advertising you see.
Visit our Privacy Policy to learn more. By continuing to use the site, you agree to this use of cookies and data.
  • In Hungary
  • List of Countries
  • For 7 days
  • Water Temperature
  • Satellite Maps
  • Weather Map
  • News
  • Weather Widgets
  • user-avatar
    Login

    Hourly Weather Laszkar Gah

    Today, 22 April, Monday

    Time Temperature Precipitation Wind Pressure Humidity
    00:00 +29°C° 0 mm 2 mps 690 mmHg 17%
    01:00 +28°C° 0 mm 2 mps 690 mmHg 18%
    02:00 +28°C° 0 mm 2 mps 690 mmHg 18%
    03:00 +27°C° 0 mm 2 mps 690 mmHg 19%
    04:00 +27°C° 0 mm 2 mps 690 mmHg 19%
    05:00 +28°C° 0 mm 2 mps 690 mmHg 19%
    06:00 +28°C° 0 mm 2 mps 691 mmHg 18%
    07:00 +29°C° 0 mm 2 mps 692 mmHg 18%
    08:00 +31°C° 0 mm 2 mps 692 mmHg 15%
    09:00 +34°C° 0 mm 2 mps 692 mmHg 13%
    10:00 +35°C° 0 mm 2 mps 693 mmHg 10%
    11:00 +36°C° 0 mm 3 mps 692 mmHg 9%
    12:00 +37°C° 0 mm 4 mps 692 mmHg 9%
    13:00 +38°C° 0 mm 4 mps 692 mmHg 8%
    14:00 +40°C° 0 mm 5 mps 692 mmHg 8%
    15:00 +40°C° 0 mm 5 mps 692 mmHg 8%
    16:00 +40°C° 0 mm 5 mps 691 mmHg 8%
    17:00 +39°C° 0 mm 5 mps 691 mmHg 10%
    18:00 +37°C° 0 mm 4 mps 691 mmHg 13%
    19:00 +35°C° 0 mm 3 mps 691 mmHg 15%
    20:00 +35°C° 0 mm 3 mps 691 mmHg 16%
    21:00 +34°C° 0 mm 3 mps 692 mmHg 18%
    22:00 +34°C° 0 mm 3 mps 692 mmHg 20%
    23:00 +33°C° 0.2 mm 3 mps 692 mmHg 22%

    Tomorrow, 23 April, Tuesday

    Time Temperature Precipitation Wind Pressure Humidity
    00:00 +31°C° 0.2 mm 3 mps 692 mmHg 25%
    01:00 +30°C° 0.2 mm 3 mps 692 mmHg 28%
    02:00 +30°C° 0.1 mm 3 mps 692 mmHg 30%
    03:00 +29°C° 0.1 mm 3 mps 692 mmHg 32%
    04:00 +28°C° 0.1 mm 3 mps 691 mmHg 33%
    05:00 +29°C° 0 mm 3 mps 692 mmHg 32%
    06:00 +30°C° 0 mm 3 mps 692 mmHg 31%
    07:00 +30°C° 0 mm 4 mps 693 mmHg 30%
    08:00 +31°C° 0 mm 3 mps 693 mmHg 26%
    09:00 +34°C° 0 mm 3 mps 693 mmHg 23%
    10:00 +35°C° 0 mm 3 mps 693 mmHg 20%
    11:00 +36°C° 0 mm 4 mps 693 mmHg 19%
    12:00 +37°C° 0 mm 5 mps 693 mmHg 18%
    13:00 +39°C° 0 mm 6 mps 693 mmHg 16%
    14:00 +38°C° 0 mm 6 mps 692 mmHg 16%
    15:00 +38°C° 0 mm 6 mps 692 mmHg 16%
    16:00 +36°C° 0 mm 6 mps 691 mmHg 16%
    17:00 +35°C° 0 mm 6 mps 691 mmHg 17%
    18:00 +35°C° 0 mm 5 mps 691 mmHg 18%
    19:00 +34°C° 0 mm 5 mps 691 mmHg 18%
    20:00 +33°C° 0.4 mm 6 mps 691 mmHg 24%
    21:00 +30°C° 0.4 mm 6 mps 692 mmHg 29%
    22:00 +29°C° 0.4 mm 7 mps 692 mmHg 35%
    23:00 +28°C° 0.3 mm 6 mps 692 mmHg 38%

    Day after tomorrow, 24 April, Wednesday

    Time Temperature Precipitation Wind Pressure Humidity
    00:00 +27°C° 0.3 mm 5 mps 691 mmHg 42%
    01:00 +27°C° 0.3 mm 4 mps 691 mmHg 45%
    02:00 +26°C° 0.3 mm 4 mps 691 mmHg 45%
    03:00 +26°C° 0.3 mm 5 mps 690 mmHg 46%
    04:00 +26°C° 0.3 mm 5 mps 690 mmHg 46%
    05:00 +27°C° 0 mm 5 mps 690 mmHg 42%
    06:00 +28°C° 0 mm 6 mps 691 mmHg 39%
    07:00 +29°C° 0 mm 6 mps 691 mmHg 36%
    08:00 +30°C° 0 mm 7 mps 692 mmHg 32%
    09:00 +32°C° 0 mm 8 mps 692 mmHg 29%
    10:00 +33°C° 0 mm 8 mps 692 mmHg 26%
    11:00 +33°C° 0 mm 9 mps 692 mmHg 24%
    12:00 +33°C° 0 mm 9 mps 692 mmHg 23%
    13:00 +33°C° 0 mm 10 mps 692 mmHg 22%
    14:00 +33°C° 0 mm 10 mps 692 mmHg 22%
    15:00 +32°C° 0 mm 9 mps 691 mmHg 23%
    16:00 +32°C° 0 mm 9 mps 691 mmHg 23%
    17:00 +31°C° 0 mm 8 mps 691 mmHg 22%
    18:00 +28°C° 0 mm 8 mps 692 mmHg 21%
    19:00 +27°C° 0 mm 7 mps 692 mmHg 20%
    20:00 +26°C° 0 mm 6 mps 692 mmHg 22%
    21:00 +26°C° 0 mm 5 mps 693 mmHg 23%
    22:00 +25°C° 0 mm 4 mps 693 mmHg 25%
    23:00 +23°C° 0 mm 4 mps 693 mmHg 28%

    25 April, Thursday

    Time Temperature Precipitation Wind Pressure Humidity
    00:00 +22°C° 0 mm 5 mps 693 mmHg 31%
    01:00 +21°C° 0 mm 5 mps 693 mmHg 34%
    02:00 +21°C° 0 mm 4 mps 693 mmHg 36%
    03:00 +20°C° 0 mm 4 mps 693 mmHg 38%
    04:00 +19°C° 0 mm 4 mps 693 mmHg 40%
    05:00 +19°C° 0 mm 4 mps 693 mmHg 39%
    06:00 +20°C° 0 mm 4 mps 694 mmHg 38%
    07:00 +20°C° 0 mm 4 mps 695 mmHg 37%
    08:00 +21°C° 0 mm 4 mps 695 mmHg 31%
    09:00 +23°C° 0 mm 4 mps 696 mmHg 26%
    10:00 +25°C° 0 mm 5 mps 696 mmHg 20%
    11:00 +26°C° 0 mm 5 mps 696 mmHg 18%
    12:00 +27°C° 0 mm 5 mps 695 mmHg 16%
    13:00 +28°C° 0 mm 5 mps 695 mmHg 15%
    14:00 +28°C° 0 mm 5 mps 695 mmHg 14%
    15:00 +28°C° 0 mm 5 mps 694 mmHg 14%
    16:00 +28°C° 0 mm 5 mps 694 mmHg 14%
    17:00 +27°C° 0 mm 5 mps 694 mmHg 15%
    18:00 +26°C° 0 mm 4 mps 694 mmHg 15%
    19:00 +26°C° 0 mm 4 mps 694 mmHg 16%
    20:00 +25°C° 0 mm 4 mps 694 mmHg 17%
    21:00 +24°C° 0 mm 3 mps 694 mmHg 18%
    22:00 +24°C° 0 mm 3 mps 694 mmHg 19%
    23:00 +22°C° 0 mm 3 mps 694 mmHg 21%

    26 April, Friday

    Time Temperature Precipitation Wind Pressure Humidity
    00:00 +21°C° 0 mm 3 mps 694 mmHg 22%
    01:00 +21°C° 0 mm 3 mps 693 mmHg 23%
    02:00 +20°C° 0 mm 3 mps 693 mmHg 24%
    03:00 +20°C° 0 mm 3 mps 693 mmHg 26%
    04:00 +19°C° 0 mm 3 mps 693 mmHg 27%
    05:00 +20°C° 0 mm 3 mps 694 mmHg 26%
    06:00 +20°C° 0 mm 4 mps 694 mmHg 26%
    07:00 +21°C° 0 mm 4 mps 695 mmHg 25%
    08:00 +22°C° 0 mm 4 mps 695 mmHg 22%
    09:00 +25°C° 0 mm 4 mps 696 mmHg 18%
    10:00 +26°C° 0 mm 4 mps 696 mmHg 15%
    11:00 +27°C° 0 mm 4 mps 696 mmHg 14%
    12:00 +28°C° 0 mm 4 mps 696 mmHg 13%
    13:00 +29°C° 0 mm 5 mps 695 mmHg 13%
    14:00 +29°C° 0 mm 5 mps 695 mmHg 13%
    15:00 +29°C° 0 mm 5 mps 695 mmHg 13%
    16:00 +29°C° 0 mm 5 mps 694 mmHg 13%
    17:00 +28°C° 0 mm 5 mps 695 mmHg 14%
    18:00 +27°C° 0 mm 5 mps 695 mmHg 15%
    19:00 +26°C° 0 mm 5 mps 695 mmHg 16%
    20:00 +25°C° 0 mm 5 mps 695 mmHg 17%
    21:00 +25°C° 0 mm 4 mps 695 mmHg 18%
    22:00 +23°C° 0 mm 4 mps 695 mmHg 19%
    23:00 +22°C° 0 mm 4 mps 695 mmHg 20%

    27 April, Saturday

    Time Temperature Precipitation Wind Pressure Humidity
    00:00 +21°C° 0 mm 3 mps 694 mmHg 20%
    01:00 +21°C° 0 mm 3 mps 694 mmHg 21%
    02:00 +20°C° 0 mm 3 mps 694 mmHg 22%
    03:00 +20°C° 0 mm 3 mps 694 mmHg 23%
    04:00 +19°C° 0 mm 3 mps 694 mmHg 24%
    05:00 +20°C° 0 mm 4 mps 694 mmHg 24%
    06:00 +20°C° 0 mm 4 mps 695 mmHg 23%
    07:00 +20°C° 0 mm 4 mps 695 mmHg 23%
    08:00 +22°C° 0 mm 5 mps 696 mmHg 20%
    09:00 +25°C° 0 mm 5 mps 696 mmHg 17%
    10:00 +26°C° 0 mm 5 mps 697 mmHg 13%
    11:00 +27°C° 0 mm 6 mps 696 mmHg 13%
    12:00 +28°C° 0 mm 6 mps 696 mmHg 13%
    13:00 +29°C° 0 mm 6 mps 696 mmHg 12%
    14:00 +29°C° 0 mm 7 mps 695 mmHg 12%
    15:00 +29°C° 0 mm 7 mps 695 mmHg 12%
    16:00 +29°C° 0 mm 7 mps 695 mmHg 12%
    17:00 +28°C° 0 mm 6 mps 695 mmHg 13%
    18:00 +27°C° 0 mm 6 mps 695 mmHg 13%
    19:00 +26°C° 0 mm 5 mps 695 mmHg 14%
    20:00 +25°C° 0 mm 5 mps 695 mmHg 16%
    21:00 +23°C° 0 mm 4 mps 695 mmHg 17%
    22:00 +22°C° 0 mm 4 mps 695 mmHg 18%
    23:00 +22°C° 0 mm 4 mps 695 mmHg 20%
    Show more